Location: La Oliva
(42.2466°N, 2.9955°E)
Time: 11:07:28
(UTC+00:00)

IRIDIUM 104 - Pass Details

Date: 22 April 2021
Orbit: 776 x 779 km, 86.4° (Epoch: 10 May)

Event Time Altitude Azimuth Distance (km) Brightness Sun altitude
Exits shadow 20:03:24 - 177° (S) 2,662 6.8 -15.1°
Reaches altitude 10° 20:04:16 10° 177° (S) 2,322 6.5 -15.3°
Maximum altitude 20:09:28 80° 91° (E) 794 4.2 -16.1°
Drops below altitude 10° 20:14:42 10° 5° (N) 2,337 7.2 -16.9°
Sets 20:17:03 0° 5° (N) 3,269 8.0 -17.2°
